Torna al catalogo

EKRAN 6

AttivoComunicazioniGEO
NORAD 12120·PAYLOAD·🇷🇺 Russia

Lanciato Dec 26, 1980 da Baikonur Cosmodrome

Loading…

TLE

AggiornatoSource: Space-Track

Epoca: Sep 14, 2026, 14:05 UTC

1 12120U 80104A   26257.58749440  .00000008  00000-0  00000-0 0  9990
2 12120   6.0357 289.8917 0004403  69.1300 268.2359  1.00315246128304

Traccia EKRAN 6 in tempo reale con AllMySat

Download on the App Store